Regional Weather Roundup
Issued by NWS

Home | Current Version | Previous Version | Text Only | Print | Product List | Glossary Off
Versions: 1 2 3 4 5 6 7 8 9 10 11 12 13 14 15 16 17 18 19 20 21 22 23 24 25 26 27 28 29 30 31 32 33 34 35 36 37 38 39 40 41 42 43 44 45 46 47 48 49 50

000
ASUS43 KIND 060059
RWRIN

WEATHER ROUNDUP FOR INDIANA
NATIONAL WEATHER SERVICE INDIANAPOLIS IN
900 PM EDT THU MAY 05 2016

NOTE: "FAIR" INDICATES FEW OR NO CLOUDS BELOW 12,000 FEET WITH NO
SIGNIFICANT WEATHER AND/OR OBSTRUCTIONS TO VISIBILITY.

* - STATION DOES NOT REPORT WEATHER SUCH AS PRECIPITATION OR FOG.

+ - STATION NOT QUALITY CONTROLLED BY THE NATIONAL WEATHER SERVICE.
    USE DATA WITH CAUTION...ESPECIALLY DEWPOINT AND RELATIVE
    HUMIDITY OBSERVATIONS.

INZ001>003-010>013-019-020-060200-
NORTHWEST INDIANA

CITY           SKY/WX    TMP DP  RH WIND       PRES   REMARKS
GARY /AIRPORT/ PTCLDY    48  46  93 NE5       29.98S
RENSSELAER +   CLEAR     54  41  62 N3        29.97S

$$

LMZ046-743>745-060200-
SOUTHERN LAKE MICHIGAN

STATION/POSITION TIME  TEMP    WIND        PRES    WAVE
                       AIR SEA DIR/SP/G            HT
                 (UTC) (F)     (DEG/KT/KT) (MB)    (FT)
BURNS HARBOR     0040   48      70/  6/  8 1015.6F
MICHIGAN CITY    0000   45      20/  3/  4   N/A

$$

INZ004-005-014>016-021>024-060200-
NORTH CENTRAL INDIANA

CITY           SKY/WX    TMP DP  RH WIND       PRES   REMARKS
ELKHART        CLEAR     54  45  71 NW8       29.95R
GOSHEN         CLEAR     53  42  66 NW10      29.93R
SOUTH BEND     CLEAR     48  40  73 NW7       29.97R

$$

INZ006>009-017-018-025>027-060200-
NORTHEAST INDIANA

CITY           SKY/WX    TMP DP  RH WIND       PRES   REMARKS
ANGOLA *+        N/A     59  46  63 NW6       29.91R
FORT WAYNE     PTCLDY    59  46  62 NW14      29.90R

$$

INZ028-029-035-036-043>045-051>053-060200-
WEST CENTRAL INDIANA

CITY           SKY/WX    TMP DP  RH WIND       PRES   REMARKS
CRAWFORDSVL +  CLEAR     55  43  65 NW6       29.95R
GREENCASTLE +  CLEAR     57  45  62 N10       29.94S
LAFAYETTE      CLEAR     55  42  61 N9        29.95R
TERRE HAUTE    CLEAR     59  41  51 N6        29.94S

$$

INZ030>032-037>040-046>048-054>057-064-065-060200-
CENTRAL INDIANA

CITY           SKY/WX    TMP DP  RH WIND       PRES   REMARKS
COLUMBUS       MOCLDY    55  50  82 NW8       29.91R
INDIANAPOLIS   PTCLDY    58  42  55 NW14      29.91R
-EAGLE CREEK   PTCLDY    59  44  57 N14       29.91R
KOKOMO *+      CLEAR     55  43  62 NW9       29.92S
SHELBYVILLE    CLOUDY    57  49  74 NW6       29.89R

$$

INZ033-034-041-042-049-050-058-059-060200-
EAST CENTRAL INDIANA

CITY           SKY/WX    TMP DP  RH WIND       PRES   REMARKS
MUNCIE         CLOUDY    60  47  61 N10       29.90R

$$

INZ060-061-067>069-081>083-085>088-060200-
SOUTHWEST INDIANA

CITY           SKY/WX    TMP DP  RH WIND       PRES   REMARKS
EVANSVILLE     CLEAR     54  47  77 W6        29.96S
HUNTINGBURG *+ CLEAR     57  45  62 NW5       29.94S

$$

INZ062-063-066-070>080-084-089>092-060200-
SOUTH CENTRAL AND SOUTHEAST INDIANA

CITY           SKY/WX    TMP DP  RH WIND       PRES   REMARKS
BLOOMINGTON    PTCLDY    57  44  62 W5        29.92S
MADISON *+     CLOUDY    55  43  62 NW5       29.91R
SEYMOUR +      CLEAR     57  46  67 NW7       29.90R

$$





USA.gov is the U.S. government's official web portal to all federal, state and local government web resources and services.